GW7312 Weather Reports


time (UTC)temp
F
wind
direction
speed
knots
gust
knots
rain 1hr
in
rain 24hr
in
rain mn
in
humidity
%
barometer
mb
20260503224516 80 0.0 0.9 0.00 0.00 0.00 38 1011.5
20260503223516 80 0.0 1.7 0.00 0.00 0.00 36 1011.7
20260503222516 80 0.0 1.7 0.00 0.00 0.00 37 1011.7
20260503221556 79 0.0 1.7 0.00 0.00 0.00 40 1012.0
20260503220521 79 0.0 1.7 0.00 0.00 0.00 37 1012.0
20260503215516 79 248 0.9 1.7 0.00 0.00 0.00 40 1012.0
20260503214516 79 270 0.9 2.6 0.00 0.00 0.00 36 1012.2
20260503213516 80 0.0 1.7 0.00 0.00 0.00 40 1012.3
20260503212516 80 0.0 2.6 0.00 0.00 0.00 38 1012.2
20260503211556 80 248 0.9 2.6 0.00 0.00 0.00 38 1012.4
20260503210516 80 270 0.9 7.0 0.00 0.00 0.00 39 1012.5
20260503205516 80 0.0 1.7 0.00 0.00 0.00 38 1012.5
20260503204516 79 0.0 1.7 0.00 0.00 0.00 41 1012.6
20260503203516 79 225 0.9 3.5 0.00 0.00 0.00 39 1012.7
20260503202516 79 0.0 0.9 0.00 0.00 0.00 39 1012.8
20260503201516 79 0.0 1.7 0.00 0.00 0.00 41 1012.9
20260503200518 79 0.0 0.9 0.00 0.00 0.00 44 1013.0
20260503195516 78 0.0 2.6 0.00 0.00 0.00 47 1013.2
20260503194515 77 0.0 1.7 0.00 0.00 0.00 45 1013.2
20260503193516 77 0.0 0.9 0.00 0.00 0.00 46 1013.3
20260503192636 76 293 0.9 3.5 0.00 0.00 0.00 47 1013.4
20260503191556 76 0.0 0.9 0.00 0.00 0.00 46 1013.4
20260503190516 76 0.0 0.9 0.00 0.00 0.00 46 1013.5
20260503185515 76 0.0 1.7 0.00 0.00 0.00 49 1013.5
20260503184516 74 0.0 0.9 0.00 0.00 0.00 54 1013.6
20260503183516 73 0.0 1.7 0.00 0.00 0.00 52 1013.7
20260503182516 72 0.0 1.7 0.00 0.00 0.00 51 1013.8
20260503181515 71 315 0.9 1.7 0.00 0.00 0.00 52 1013.9
20260503180516 71 158 0.9 5.2 0.00 0.00 0.00 52 1013.9
20260503175516 71 0.0 1.7 0.00 0.00 0.00 54 1013.8
20260503174556 70 23 0.9 2.6 0.00 0.00 0.00 53 1013.9
20260503173516 70 0.0 0.9 0.00 0.00 0.00 56 1014.0
20260503172516 69 0.0 1.7 0.00 0.00 0.00 57 1014.0
20260503171556 68 315 0.9 3.5 0.00 0.00 0.00 58 1014.0
20260503170515 67 0.0 3.5 0.00 0.00 0.00 59 1014.0
20260503150517 60 0.0 0.0 0.00 0.00 0.00 72 1014.5
20260503130517 59 0.0 0.9 0.00 0.00 0.00 71 1014.0
20260503110517 55 0.0 0.9 0.00 0.00 0.00 80 1014.4
20260503081516 58 0.0 0.0 0.00 0.00 0.00 67 1014.7
20260503080516 58 0.0 0.0 0.00 0.00 0.00 68 1014.6
20260503072516 59 0.0 0.9 0.00 0.00 0.00 67 1014.5
20260503071516 59 0.0 0.0 0.00 0.00 0.00 68 1014.4
20260503070516 59 0.0 0.0 0.00 0.00 0.00 67 1014.3
20260503055017 59 0.0 0.0 0.00 0.00 0.00 69 1014.1
20260503054017 59 0.0 0.0 0.00 0.00 0.00 68 1014.1
20260503053017 60 0.0 0.0 0.00 0.00 0.00 69 1014.1
20260503052057 61 0.0 0.9 0.00 0.00 0.00 68 1014.1
20260503051017 62 0.0 0.9 0.00 0.00 0.00 66 1014.0
20260503050017 62 0.0 0.0 0.00 0.00 0.00 62 1013.9
20260503045017 62 0.0 0.0 0.00 0.00 0.00 64 1014.0
20260503044017 61 0.0 0.0 0.00 0.00 0.00 64 1014.0
20260503043017 61 0.0 0.9 0.00 0.00 0.00 65 1013.9
20260503042017 61 0.0 0.9 0.00 0.00 0.00 65 1013.8
20260503041017 61 0.0 0.9 0.00 0.00 0.00 66 1013.5
20260503040016 62 0.0 0.0 0.00 0.00 0.00 65 1013.5
20260503035017 62 0.0 0.9 0.00 0.00 0.00 64 1013.4
20260503034017 63 0.0 0.9 0.00 0.00 0.00 63 1013.4
20260503033016 63 0.0 0.9 0.00 0.00 0.00 61 1013.3
20260503032137 64 0.0 0.9 0.00 0.00 0.00 61 1013.3
20260503031017 64 0.0 0.9 0.00 0.00 0.00 59 1013.2
20260503030018 65 0.0 0.9 0.00 0.00 0.00 59 1013.2
20260503025017 65 0.0 0.9 0.00 0.00 0.00 59 1013.0
20260503024017 66 0.0 0.9 0.00 0.00 0.00 57 1013.1
20260503023016 66 0.0 0.0 0.00 0.00 0.00 56 1013.1
20260503022017 67 0.0 0.9 0.00 0.00 0.00 55 1013.2
20260503021016 67 0.0 0.0 0.00 0.00 0.00 52 1013.1
20260503020016 68 0.0 0.0 0.00 0.00 0.00 51 1013.1
20260503015017 69 0.0 1.7 0.00 0.00 0.00 48 1013.1
20260503014016 69 0.0 0.9 0.00 0.00 0.00 49 1013.4
20260503013017 69 0.0 1.7 0.00 0.00 0.00 47 1013.3
20260503012016 70 0.0 0.9 0.00 0.00 0.00 49 1013.3
20260503011016 70 0.0 1.7 0.00 0.00 0.00 49 1013.3
20260503010056 70 0.0 1.7 0.00 0.00 0.00 48 1013.3
20260503005016 71 0.0 1.7 0.00 0.00 0.00 47 1013.4
20260503004016 71 0.0 0.9 0.00 0.00 0.00 47 1013.4
20260503003016 72 0.0 0.9 0.00 0.00 0.00 47 1013.4
20260503002036 72 0.0 0.9 0.00 0.00 0.00 47 1013.5
20260503001056 73 315 0.9 3.5 0.00 0.00 0.00 48 1013.5
20260503000016 73 0.0 0.9 0.00 0.00 0.00 48 1013.4
20260502235016 74 270 0.9 2.6 0.00 0.00 0.00 49 1013.5
20260502234016 74 0.0 0.9 0.00 0.00 0.00 49 1013.7
20260502233016 75 0.0 1.7 0.00 0.00 0.00 50 1013.9
20260502232016 75 0.0 0.9 0.00 0.00 0.00 49 1013.9
20260502231016 74 0.0 0.9 0.00 0.00 0.00 49 1014.2
20260502230056 74 0.0 0.9 0.00 0.00 0.00 53 1014.4